User: anonymous   Login
Location: Mentone
(34.5413°N, 85.5351°W)
Time: 04:51:16
(UTC-06:00)
Language:

ATLAS 5 CENTAUR R/B - Orbit

View from above orbital plane
View from above orbital plane
View from above satellite
View from above satellite

Ground track
Ground track

The orbit data is extracted from the following two-line orbital elements,

1 31702U 07027B   14330.19152570 0.00000600  00000-0  25237-3 0    01
2 31702  63.3770  62.1317 0169000 352.2712   7.7288 14.18229212    03
Epoch (UTC): 26 November 2014 04:35:47
Eccentricity: 0.0169000
inclination: 63.3770°
perigee height: 709 km
apogee height: 953 km
right ascension of ascending node: 62.1317°
argument of perigee: 352.2712°
revolutions per day: 14.18229212
mean anomaly at epoch: 7.7288°
orbit number at epoch: 0

The dashed part of the orbit path shows where the satellite is in the earth's shadow,  

DLR